Weather Roundup
Issued by NWS Corpus Christi, TX

Home | Current Version | Previous Version | Text Only | Print | Product List | Glossary On
Versions: 1 2 3 4 5 6 7 8 9 10 11 12 13 14 15 16 17 18 19 20 21 22 23 24 25 26 27 28 29 30 31 32 33 34 35 36 37 38 39 40 41 42 43 44 45 46 47 48 49 50
000
ASUS44 KCRP 260210
HRRCRP

SOUTH TEXAS REGIONAL WEATHER ROUNDUP
NATIONAL WEATHER SERVICE CORPUS CHRISTI TX
800 PM CST THU DEC 25 2014


TXZ229>244-260300-
...CORPUS CHRISTI AREA OBSERVATIONS...

CITY           SKY/WX    TMP DP  RH WIND       PRES   REMARKS
CORPUS CHRISTI PTCLDY    59  50  72 S12       30.00R
NAS CORPUS CHR PTCLDY    61  55  81 S10       30.01R
ROCKPORT       PTCLDY    62  52  69 SE12      30.01S
KINGSVILLE NAS MOCLDY    61  54  77 SE13      30.00R
ALICE          MOCLDY    59  50  72 SE10      29.99R
FALFURRIAS     CLOUDY    62  49  63 SE12      29.99R
$$

...VICTORIA AREA OBSERVATIONS...

CITY           SKY/WX    TMP DP  RH WIND       PRES   REMARKS
VICTORIA       MOCLDY    54  49  83 SE8       30.02R
BEEVILLE       FAIR      57  49  76 SE8       30.00R
PLEASANTON     MOCLDY    56  44  63 SE8       29.97S
SAN ANTONIO    PTCLDY    55  39  54 SE9       29.97R
$$

...LAREDO AREA OBSERVATIONS...

CITY           SKY/WX    TMP DP  RH WIND       PRES   REMARKS
LAREDO         CLEAR     59  41  51 SE10      29.96R
COTULLA        PTCLDY    59  40  49 SE10      29.94S
DEL RIO        MOCLDY    58  31  35 SE13      29.89R
MCALLEN        PTCLDY    61  54  77 SE10      29.99R
HEBBRONVILLE   MOCLDY    59  45  58 SE12      29.97S
$$

...OTHER TEXAS OBSERVATIONS...

CITY           SKY/WX    TMP DP  RH WIND       PRES   REMARKS
BROWNSVILLE    CLOUDY    65  54  67 SE13      30.01R
HOUSTON        PTCLDY    55  46  71 SE10      30.05S
COL. STATION   PTCLDY    55  44  66 SE10      30.01S
AUSTIN         PTCLDY    51  39  63 S7        29.98R
WACO           CLEAR     54  40  59 S18       29.95F
FORT WORTH     MOCLDY    55  34  45 S20       29.91S
WICHITA FALLS  CLOUDY    52  28  39 SE14      29.81R
LUBBOCK        CLOUDY    50  25  37 S15       29.74R
EL PASO        MOCLDY    59  19  21 SW17      29.71R
$$

...MARINE OBSERVATIONS...

STATION/POSITION TIME  SKY/WX   TEMP    WIND        PRES    VSBY  WAVE   SWELL
                                AIR SEA DIR/SP/G                  HT/PER HT/PER
                 (UTC)          (F)     (DEG/KT/KT) (MB)    (MI)  (FT/S) (FT/S)
PORT ARANSAS     0200            64 59  140/ 19/ 20 1016.6R
BUOY 90 E PORT A 0200            66 72  150/ 19/ 23 1017.5F         4/ 5
BUOY 45 SE BAFFI 0200            67 72  160/ 23/ 29 1015.9S         5/ 6
BUOY 200 E PT IS 0200            67 73  130/ 17/ 21 1018.9S         2/ 3
BUOY 15 E GALVES 0200            63 60  160/ 17/ 19 1017.9F         4/ 5
$$


USA.gov is the U.S. government's official web portal to all federal, state and local government web resources and services.